Retour au catalogue

GHOST RIDER

ActifScienceSSO
NORAD 68439·PAYLOAD· XX
Ce nom de satellite n'a pas encore été confirmé par des sources officielles.

Lancé Mar 30, 2026 depuis Vandenberg Space Force Base

Loading…

Prochains Passages (prochaines 24 heures)

TLE

FraisSource: Space-Track

Époque: Sep 14, 2026, 08:20 UTC

1 68439U 26067Z   26257.34753410  .00010959  00000-0  48635-3 0  9993
2 68439  97.4602 214.8736 0004702  98.4219 261.7550 15.21734108 25495

Suivez GHOST RIDER en temps réel avec AllMySat

Download on the App Store